Location: Caltech
(34.1382°N, 118.1253°W)
Time: 00:15:55
(UTC-07:00)

Sapphire - Visible Passes

Search period start: 26 May 2017 00:00
Search period end: 05 June 2017 00:00
Orbit: 784 x 797 km, 67.1° (Epoch: 25 May)

Date Brightness Start Highest point End Pass type
(mag) Time Alt. Az. Time Alt. Az. Time Alt. Az.
26 May ? 04:49:03 10° NNW 04:54:18 46° ENE 04:59:29 10° SE visible
26 May ? 21:14:10 10° WNW 21:16:11 12° NW 21:18:13 10° NNW visible
27 May ? 04:18:38 10° N 04:23:32 33° ENE 04:28:24 10° ESE visible
27 May ? 20:41:54 10° W 20:45:16 16° NW 20:48:38 10° NNW visible
28 May ? 03:48:19 10° N 03:52:45 25° NE 03:57:07 10° ESE visible
29 May ? 03:18:12 10° N 03:21:53 18° NE 03:25:34 10° E visible
29 May ? 05:00:20 10° NW 05:05:39 57° WSW 05:10:57 10° S visible
30 May ? 02:48:23 10° NNE 02:50:59 13° NE 02:53:35 10° ENE visible
30 May ? 04:29:35 10° NNW 04:35:02 82° WSW 04:40:27 10° SSE visible
31 May ? 03:58:57 10° NNW 04:04:23 71° ENE 04:09:47 10° SSE visible
01 Jun ? 03:28:24 10° NNW 03:33:41 50° ENE 03:38:56 10° SE visible
01 Jun ? 05:13:05 10° WNW 05:16:37 18° WSW 05:20:09 10° SW visible
02 Jun ? 02:57:56 10° N 03:02:57 36° ENE 03:07:54 10° SE visible
02 Jun ? 04:41:43 10° NW 04:46:07 26° WSW 04:50:30 10° SSW visible
03 Jun ? 02:27:36 10° N 02:32:10 26° NE 02:36:40 10° ESE visible
03 Jun ? 04:10:39 10° NW 04:15:35 36° WSW 04:19:45 14° S visible
04 Jun ? 01:57:26 10° N 02:01:19 20° NE 02:05:12 10° E visible
04 Jun ? 03:39:45 10° NW 03:45:01 52° WSW 03:47:13 32° S visible
